N7166H KCOI-KCOI

Flight info

Callsign N7166H
Flight time 0h 9m
Altitude 500
Route VFR
Aircraft R44/L-SDE3/L

Departure

Time 2026-04-26 19:40
Airport Merritt Island Airport (KCOI)

Arrival

Time 2026-04-26 19:49
Airport Merritt Island Airport (KCOI)
Time Latitude Longitude Altitude Speed Heading
2026-04-26 19:27 28.33312 -80.68716 420 ft 110 kts 149°
2026-04-26 19:28 28.32861 -80.68343 448 ft 125 kts 149°
2026-04-26 19:28 28.32550 -80.68106 416 ft 134 kts 151°
2026-04-26 19:28 28.32039 -80.67757 463 ft 136 kts 154°
2026-04-26 19:28 28.31294 -80.67249 444 ft 139 kts 166°
2026-04-26 19:29 28.30652 -80.67059 371 ft 143 kts 171°
2026-04-26 19:29 28.29945 -80.66866 205 ft 152 kts 167°
2026-04-26 19:29 28.29505 -80.66711 208 ft 150 kts 163°
2026-04-26 19:29 28.28774 -80.65970 300 ft 146 kts 115°
2026-04-26 19:30 28.28625 -80.65021 368 ft 147 kts 91°
2026-04-26 19:30 28.28676 -80.63943 263 ft 156 kts 86°
2026-04-26 19:30 28.28717 -80.63216 242 ft 156 kts 87°
2026-04-26 19:30 28.28743 -80.62450 197 ft 157 kts 89°
2026-04-26 19:31 28.28580 -80.61021 410 ft 139 kts 131°
2026-04-26 19:31 28.27924 -80.60635 387 ft 141 kts 168°
2026-04-26 19:31 28.27254 -80.60477 374 ft 143 kts 175°
2026-04-26 19:31 28.26244 -80.60394 281 ft 147 kts 182°
2026-04-26 19:32 28.25792 -80.60338 243 ft 149 kts 174°
2026-04-26 19:32 28.24920 -80.60167 220 ft 148 kts 175°
2026-04-26 19:32 28.24113 -80.60041 202 ft 142 kts 172°
2026-04-26 19:32 28.23737 -80.59966 301 ft 136 kts 175°
2026-04-26 19:33 28.22989 -80.59879 283 ft 138 kts 179°
2026-04-26 19:33 28.22647 -80.59825 329 ft 134 kts 172°
2026-04-26 19:33 28.22108 -80.59700 274 ft 139 kts 171°
2026-04-26 19:33 28.21217 -80.59529 203 ft 140 kts 174°
2026-04-26 19:34 28.20853 -80.59480 198 ft 139 kts 174°
2026-04-26 19:34 28.20266 -80.59350 247 ft 137 kts 170°
2026-04-26 19:34 28.19699 -80.59222 252 ft 137 kts 171°
2026-04-26 19:34 28.19235 -80.59114 259 ft 137 kts 171°
2026-04-26 19:35 28.18704 -80.59006 227 ft 140 kts 173°
2026-04-26 19:35 28.18355 -80.58935 212 ft 141 kts 172°
2026-04-26 19:35 28.17789 -80.58816 195 ft 140 kts 171°
2026-04-26 19:35 28.17187 -80.58656 189 ft 142 kts 168°
2026-04-26 19:36 28.16737 -80.58528 190 ft 140 kts 168°
2026-04-26 19:36 28.16338 -80.58417 258 ft 136 kts 168°
2026-04-26 19:37 28.15947 -80.58323 314 ft 133 kts 171°
2026-04-26 19:37 28.15270 -80.58151 230 ft 142 kts 169°
2026-04-26 19:37 28.14614 -80.57983 274 ft 138 kts 170°
2026-04-26 19:37 28.13823 -80.57833 313 ft 137 kts 166°
2026-04-26 19:38 28.13433 -80.57698 350 ft 136 kts 166°
2026-04-26 19:38 28.12800 -80.57528 356 ft 138 kts 172°
2026-04-26 19:38 28.11974 -80.57323 273 ft 144 kts 168°
2026-04-26 19:38 28.11556 -80.57203 253 ft 144 kts 167°
2026-04-26 19:39 28.11147 -80.57041 342 ft 134 kts 158°
2026-04-26 19:39 28.10613 -80.56747 358 ft 132 kts 158°
2026-04-26 19:39 28.10022 -80.56460 318 ft 138 kts 161°
2026-04-26 19:39 28.09368 -80.55939 488 ft 127 kts 102°
2026-04-26 19:40 28.09626 -80.55616 664 ft 105 kts 348°
2026-04-26 19:40 28.10050 -80.55939 494 ft 129 kts 319°
2026-04-26 19:40 28.10648 -80.56375 118 ft 151 kts 330°
2026-04-26 19:40 28.11092 -80.56622 152 ft 144 kts 333°
2026-04-26 19:41 28.11708 -80.56921 165 ft 141 kts 337°
2026-04-26 19:41 28.12432 -80.57201 161 ft 140 kts 340°
2026-04-26 19:41 28.13223 -80.57457 142 ft 140 kts 345°
2026-04-26 19:41 28.13420 -80.57505 144 ft 140 kts 346°
2026-04-26 19:42 28.14137 -80.57639 186 ft 137 kts 350°
2026-04-26 19:42 28.14760 -80.57725 176 ft 138 kts 349°
2026-04-26 19:42 28.15357 -80.57838 158 ft 139 kts 346°
2026-04-26 19:42 28.15974 -80.57993 166 ft 138 kts 344°
2026-04-26 19:43 28.16961 -80.58273 293 ft 130 kts 342°
2026-04-26 19:43 28.17350 -80.58388 228 ft 134 kts 345°
2026-04-26 19:43 28.17945 -80.58505 226 ft 136 kts 349°
2026-04-26 19:43 28.18418 -80.58579 173 ft 141 kts 349°
2026-04-26 19:44 28.18641 -80.58617 126 ft 144 kts 348°
2026-04-26 19:44 28.19437 -80.58787 203 ft 135 kts 348°
2026-04-26 19:44 28.19859 -80.58855 197 ft 138 kts 350°
2026-04-26 19:44 28.20635 -80.58939 208 ft 138 kts 354°
2026-04-26 19:45 28.21414 -80.59047 261 ft 135 kts 346°
2026-04-26 19:45 28.22189 -80.59177 316 ft 134 kts 351°
2026-04-26 19:45 28.22982 -80.59269 366 ft 134 kts 351°
2026-04-26 19:45 28.23865 -80.59350 422 ft 133 kts 353°
2026-04-26 19:46 28.24380 -80.59390 279 ft 143 kts 354°
2026-04-26 19:46 28.25139 -80.59397 299 ft 141 kts 356°
2026-04-26 19:46 28.25955 -80.59480 265 ft 142 kts 349°
2026-04-26 19:46 28.26779 -80.59572 256 ft 141 kts 353°
2026-04-26 19:47 28.27512 -80.59831 309 ft 133 kts 333°
2026-04-26 19:47 28.27952 -80.60035 275 ft 137 kts 336°
2026-04-26 19:47 28.28863 -80.60307 423 ft 130 kts 347°
2026-04-26 19:47 28.29718 -80.60541 503 ft 126 kts 327°
2026-04-26 19:48 28.30028 -80.60801 513 ft 126 kts 315°
2026-04-26 19:48 28.30353 -80.61298 569 ft 123 kts 294°
2026-04-26 19:48 28.30539 -80.61888 479 ft 131 kts 287°
2026-04-26 19:48 28.30745 -80.62524 423 ft 134 kts 290°
2026-04-26 19:49 28.31043 -80.63327 192 ft 146 kts 294°
2026-04-26 19:49 28.31229 -80.63731 31 ft 105 kts 279°
2026-04-26 19:50 28.30682 -80.62347 444 ft 132 kts 285°
2026-04-26 19:50 28.30813 -80.63047 222 ft 122 kts 273°